ARIANE 44LP DEB, 33546

Orbit data source: Space-Track

ARIANE 44LP DEB, 33546 is space debris in HEO originally from a launch on Sun, 11 Dec 1988 UTC launched from the French Guiana (FRGUI). Debris objects in space refer to the collection of defunct objects orbiting the Earth. Examples of debris include non-operational satellites, rocket bodies, and fragments generated from explosions, collisions, or faulty payload assembly.

Loading next visibility...
Identifier
33546, 1988-109V
Orbit
HEO
Country
Flag of FRFR
Related business
Manufacturer
Unknown
Mission
Spacecraft
Bus & Motor
Unknown
Mass
Unknown
Launch date (UTC)
1988-12-11 (38 years ago)
Launch vehicle
Unknown
Launch site
French Guiana (FRGUI)
Object type
Payload
Rocket body
Debris
Shape & HBR
Unknown shape, 1.1 m
Radar Cross Section
Medium (>0.1 m² and <1 m²)

Expand to show TLE details & history
Last TLE update: 1 month ago

TLE from 1 month ago
0 ARIANE 44LP DEB
1 33546U 88109V   26130.06305925 -.00000074  00000-0 -10063-2 0  9994
2 33546   6.8765 261.5197 7132734  12.8308 341.8501  2.23370307 20589
Epoch: 2026-05-10T01:30Z
TLE epoch observation values (Epoch: 2026-05-10T01:30:48.319Z)
Latitude
-6.88086°
Longitude
-72.02995°
Altitude
6,707.837 km
Speed
6.693 km/s
True Right ascension
11h 54m 10s
True Declination
-6° 51' 31"
Sunlit
Object was in daylight at epoch
Visualization orbit readout
Latitude
Unknown
Longitude
Unknown
Altitude
Unknown
Speed
Unknown
Apparent Right ascension
Unknown
Apparent Declination
Unknown
Sunlit
N/A
Visualization observer readout
Local Sidereal Time
02:17:16
Azimuth
Unknown
Elevation
Unknown
Doppler factor
Unknown
Orbital elements
Apogee altitude
35,982.984 km
Perigee altitude
711.251 km
Semi-major axis
24,725.255 km
Eccentricity
0.71327
Inclination
6.8765°
RAAN
261.5197°
Arg. of periapsis
12.8308°
True anomaly
263.84397°
Mean anomaly
341.8501°
Eccentric anomaly
311.01309°
Mean motion
0.55825 °/min
Orbital period
644.87 mins
BSTAR
-0.0010063
Loading maneuver chart data...
Computing Atmospheric mass density...
Loading historical data...
Loading historical data...
Loading historical data...
Loading historical data...
Loading historical data...
Loading historical data...
Loading historical data...

Documentation

Showing up to 5 results
|